LJLJLJPZ

Guest
Details From LJLJ - LJUBLJANA
To LJPZ - PORTOROZ
Flight Number -
Tags generated
Created
Modified
Stats Distance 57 nm / 106 km
Max Altitude 0 ft / 0 m
Waypoints 3
Social Downloads 2
Likes 0
Share VATSIM

Download

Looking for another format? Having issues loading an existing format? Contact us
Advertisement - Login to hide

Notes

Basic altitude profile: - Ascent Rate: 2500ft/min - Ascent Speed: 250kts - Cruise Altitude: 35000ft - Cruise Speed: 420kts - Descent Rate: 1500ft/min - Descent Speed: 250kts Options: - Use NATs: yes - Use PACOTS: yes - Use low airways: yes - Use high airways: yes

Route

LJLJ PZ LJPZ

ID Type Via Altitude Latitude Longitude Leg Dist Tot Dist Heading (true) Name
O LJLJ APT - 0 ft / 0 m 46.22368˚ 14.45761˚ - 0 nm - LJUBLJANA
PZ NDB - 0 ft / 0 m 45.47747˚ 13.61492˚ 57 nm 57 nm 218° / 218° PORTOROZ NDB
O LJPZ APT - 0 ft / 0 m 45.47244˚ 13.61568˚ 0 nm 57 nm 174° / 174° PORTOROZ

Altitude Profile

Advertisement - Login to hide

LJLJ

Details ICAO LJLJ (LJU)
Name LJUBLJANA
Region Slovenia
Timezone Europe/Ljubljana (UTC+1.0)
Stats Elevation 1,273 ft / 388 m (AMSL)
Location 46.223685° 14.457608°
Runways 1
Magnetic Variation 3.662° E

METAR

LJLJ 151000Z VRB02KT 9999 -RA FEW015 SCT030CB BKN033 OVC040 07/07 Q0999 NOSIG

Decode

TAF

TAF LJLJ 150800Z 1509/1609 34004KT 7000 -RA BKN030 OVC050 TEMPO 1509/1520 3500 RA BR BKN020 BECMG 1521/1524 2500 SN BR BKN010 OVC020 BECMG 1603/1606 4500 -SN SCT010 OVC020 BECMG 1607/1609 7000 NSW SCT010 BKN025

Decode

Departure Runways

ID Width Length Bearing (true) Bearing (mag) Surface Threshold Offset Overrun Length
13 148 ft / 45 m 10,811 ft / 3,295 m 126.47° 122.81° Asphalt 0 ft / 0 m 0 ft / 0 m
31 148 ft / 45 m 10,811 ft / 3,295 m 306.49° 302.83° Asphalt 0 ft / 0 m 0 ft / 0 m

LJPZ

Details ICAO LJPZ (POW)
Name PORTOROZ
Region Slovenia
Timezone Europe/Ljubljana (UTC+1.0)
Stats Elevation 7 ft / 2 m (AMSL)
Location 45.472445° 13.615681°
Runways 1
Magnetic Variation 3.444° E

METAR

LJPZ 151000Z 20006KT 160V250 9999 SCT060 BKN080 15/09 Q1000

Decode

TAF

Not found

Destination Runways

ID Width Length Bearing (true) Bearing (mag) Surface Threshold Offset Overrun Length
15 98 ft / 30 m 3,939 ft / 1,201 m 151.28° 147.84° Asphalt 0 ft / 0 m 0 ft / 0 m
33 98 ft / 30 m 3,939 ft / 1,201 m 331.29° 327.85° Asphalt 751 ft / 229 m 0 ft / 0 m

Popular Alternatives